Wind_Speed
36 37 38 39 41 42 43 43 44 44 45 44 42 42 43 43 43 44 45 46 48 49 48 48 47 47 46 45 43 42 40 38 36 34 33 31 30 29
37 37 38 40 41 41 43 44 44 45 45 46 45 44 43 43 44 44 45 47 48 48 48 48 47 47 46 45 44 42 40 39 38 35 33 32 31 29
37 37 38 40 41 42 42 44 45 45 45 45 46 45 44 43 45 44 45 45 46 47 49 48 47 47 47 45 44 43 41 39 38 36 34 33 31 30
37 37 37 38 39 41 42 43 44 45 45 45 46 46 45 44 44 44 45 46 46 45 47 49 49 48 47 46 45 44 42 40 38 36 34 33 31 30
36 36 36 37 38 39 40 41 43 44 45 46 47 48 47 46 45 45 45 46 46 47 47 48 49 49 48 47 46 44 43 41 39 37 35 33 32 30
35 34 35 36 37 38 39 40 42 43 45 46 47 48 48 47 46 45 45 44 45 46 47 49 49 48 47 47 46 45 44 42 40 38 36 34 32 31
34 34 34 35 36 37 39 40 41 42 44 46 47 48 49 48 47 46 45 43 44 44 46 48 48 48 49 48 47 45 44 43 41 39 37 35 33 31
34 35 35 35 35 37 38 40 42 42 43 45 47 48 49 49 47 46 45 45 43 43 45 46 47 49 49 48 47 46 45 44 42 40 38 36 34 32
34 34 34 34 35 36 38 39 41 43 44 45 47 48 49 51 50 48 46 46 44 43 44 45 46 47 48 48 48 48 47 45 43 41 39 37 35 33
33 33 33 34 34 35 37 39 41 43 44 46 47 48 50 51 51 51 50 47 47 44 43 43 45 46 48 49 49 48 47 46 44 42 40 38 36 34
31 31 31 32 34 35 36 38 39 42 45 47 48 49 50 51 52 52 51 50 48 47 45 42 43 45 47 49 50 48 47 46 44 43 41 39 37 34
30 30 30 31 32 33 35 36 38 40 43 46 48 49 51 52 52 52 52 51 50 48 47 45 43 44 46 48 50 50 48 46 45 44 41 39 38 35
29 29 29 30 30 31 33 35 37 39 41 44 46 48 50 52 53 53 53 53 52 50 49 48 46 44 44 46 48 50 49 47 45 44 42 40 38 36
29 29 28 28 28 29 30 32 34 37 39 41 44 46 49 51 53 54 54 54 54 53 50 50 49 46 44 45 47 49 50 48 47 46 43 41 39 37
28 28 27 27 28 27 27 28 30 33 36 39 41 44 47 49 52 54 54 55 55 55 53 52 50 48 46 45 47 49 49 49 49 47 45 43 41 39
28 27 26 25 25 25 25 25 27 28 32 36 39 42 46 48 51 53 54 55 55 56 55 54 52 50 47 46 47 50 51 51 50 49 47 45 43 41
27 25 24 23 22 21 21 22 23 25 28 32 36 39 43 46 49 51 53 54 55 56 56 55 53 53 50 48 48 49 52 52 53 51 49 46 44 42
26 23 22 20 20 20 19 19 20 21 24 28 33 36 40 43 46 49 52 54 55 55 55 56 54 53 52 49 49 50 51 53 53 52 50 48 45 43
24 22 20 18 18 17 17 17 17 18 20 24 29 33 36 40 43 47 50 52 54 54 55 55 56 55 53 50 50 50 51 52 53 53 51 48 46 44
22 20 18 17 16 16 16 15 15 16 17 21 25 29 33 37 39 43 47 50 52 54 55 55 55 55 53 51 50 50 51 52 54 53 51 50 48 46
22 20 17 16 15 15 14 13 12 13 14 17 21 26 30 34 37 40 44 47 50 52 54 55 55 56 55 53 51 51 52 53 53 53 52 50 49 47
21 19 17 15 14 13 13 12 11 11 13 14 18 22 26 31 34 37 40 43 47 49 51 54 55 55 55 54 52 51 52 52 52 52 52 51 49 48
20 18 16 15 13 12 12 11 11 11 11 13 16 19 23 28 32 35 37 41 44 47 49 52 53 54 54 55 54 52 52 53 52 52 51 50 49 48
Wind_Direction
281 277 273 268 263 259 255 252 249 247 246 245 244 241 238 235 234 233 231 228 227 227 225 226 227 228 227 227 228 228 229 229 230 232 235 237 237 239
282 278 274 269 264 260 256 252 249 246 244 244 242 241 239 236 234 232 230 229 227 226 226 226 226 227 226 227 228 228 228 229 230 232 234 235 235 237
283 279 274 269 264 260 256 252 249 246 243 241 241 239 238 236 234 232 230 229 227 225 225 225 225 225 225 226 227 228 228 229 230 231 233 234 233 235
284 279 274 269 264 260 256 252 249 246 242 239 238 237 236 235 233 233 231 229 227 225 224 224 224 224 224 224 226 228 228 229 230 232 231 231 232 233
285 280 275 270 265 261 257 253 249 246 242 239 237 236 235 233 232 232 231 229 228 225 223 223 223 223 223 223 225 226 226 227 229 229 228 229 230 231
286 281 276 271 266 262 258 254 250 246 242 239 236 235 235 234 232 232 231 229 228 227 225 223 221 221 222 223 223 223 223 224 226 226 226 227 227 228
286 282 277 272 267 262 258 254 250 247 243 239 236 234 234 233 232 231 230 228 228 227 224 222 220 220 220 221 221 221 222 222 224 224 224 224 224 226
288 284 279 275 270 264 259 254 250 246 243 239 236 234 233 233 231 230 229 228 227 226 224 222 220 219 219 219 220 220 220 220 220 220 221 221 222 223
290 285 281 277 272 266 260 255 251 246 243 240 236 234 233 232 231 229 227 227 226 225 225 223 220 218 218 218 218 218 217 216 216 217 218 219 220 221
292 287 283 279 274 268 262 256 251 247 243 240 237 234 233 232 231 230 227 226 226 225 224 223 221 219 217 216 214 214 213 213 214 215 216 217 218 220
294 290 286 281 277 271 264 258 253 248 244 241 237 235 232 231 230 230 228 227 226 226 225 223 221 219 217 214 212 212 212 212 213 213 214 216 217 218
297 293 290 285 280 274 267 259 254 250 246 241 237 235 233 231 229 229 228 227 226 226 226 225 222 220 217 214 213 211 212 212 213 212 212 215 216 216
298 295 292 288 283 276 269 261 256 251 246 241 237 234 233 230 228 227 227 226 225 225 225 225 223 220 217 215 214 212 211 211 211 211 212 214 215 215
300 297 294 290 287 281 272 264 258 251 246 241 237 233 232 230 227 226 226 225 224 224 225 224 222 219 217 217 214 212 211 210 209 210 211 212 213 214
303 299 296 292 289 284 276 267 260 252 244 239 236 233 230 229 227 225 225 224 223 223 223 223 222 219 216 216 216 213 211 210 208 209 211 212 212 213
307 303 298 295 291 286 280 272 263 253 244 239 235 232 229 228 226 224 223 223 221 222 222 221 221 219 216 215 216 214 212 210 209 209 210 212 212 213
310 306 302 297 294 289 284 278 267 255 245 238 234 230 227 225 225 223 222 221 221 220 220 220 221 220 217 216 215 214 212 210 209 209 210 211 212 213
312 308 304 299 296 293 287 282 271 257 245 237 232 228 226 224 223 221 221 220 219 219 219 218 218 217 218 218 215 213 211 211 211 211 211 212 213 213
315 310 305 301 298 294 290 283 274 260 247 236 228 225 223 222 222 220 219 218 218 218 217 217 218 218 218 218 216 214 212 211 211 211 212 212 213 214
318 313 307 301 298 295 290 282 271 260 247 235 227 223 221 219 219 218 217 217 217 217 216 216 215 215 215 216 216 216 214 212 211 211 212 213 214 215
319 314 308 301 298 295 290 282 272 258 244 233 226 221 218 216 215 215 215 215 215 216 216 215 214 214 216 217 216 214 213 212 212 212 212 214 214 215
319 315 308 301 296 293 288 279 268 257 245 232 223 219 216 213 212 210 211 213 213 213 213 214 214 215 216 216 215 214 212 211 211 212 213 214 215 216
321 316 308 301 294 290 284 271 261 254 243 227 217 213 212 211 209 209 209 210 210 211 211 212 213 214 214 215 216 214 213 212 212 214 215 214 215 216
Height
5751 5749 5748 5747 5747 5748 5749 5751 5754 5756 5758 5760 5763 5766 5770 5773 5778 5782 5787 5792 5798 5804 5810 5817 5823 5829 5835 5840 5846 5851 5857 5862 5866 5871 5875 5878 5881 5884
5739 5737 5735 5734 5734 5735 5736 5738 5740 5743 5746 5749 5752 5755 5759 5764 5768 5772 5777 5782 5788 5794 5801 5807 5814 5820 5826 5832 5838 5843 5849 5854 5859 5864 5868 5872 5875 5878
5726 5724 5722 5721 5721 5722 5723 5725 5727 5730 5734 5737 5740 5744 5749 5753 5758 5762 5767 5772 5778 5784 5791 5798 5804 5811 5817 5823 5829 5836 5841 5847 5852 5856 5861 5865 5869 5873
5713 5711 5710 5708 5708 5709 5710 5712 5714 5717 5721 5725 5729 5733 5738 5743 5747 5752 5757 5762 5767 5774 5780 5787 5794 5801 5808 5815 5821 5827 5833 5839 5844 5849 5854 5858 5862 5866
5701 5699 5697 5696 5696 5696 5697 5699 5701 5705 5708 5713 5717 5721 5727 5732 5737 5742 5747 5752 5757 5763 5770 5777 5784 5792 5799 5805 5812 5818 5825 5831 5836 5842 5846 5851 5856 5860
5689 5687 5685 5684 5684 5684 5685 5686 5689 5692 5696 5700 5705 5710 5715 5720 5726 5731 5737 5742 5748 5754 5760 5767 5774 5781 5789 5796 5803 5809 5816 5822 5828 5834 5839 5844 5849 5854
5678 5675 5673 5672 5672 5672 5673 5674 5676 5679 5683 5688 5693 5698 5703 5709 5715 5721 5727 5732 5738 5744 5750 5757 5764 5771 5778 5786 5793 5800 5807 5814 5820 5826 5832 5838 5843 5847
5666 5663 5661 5660 5659 5660 5660 5662 5664 5667 5671 5675 5681 5686 5692 5698 5704 5710 5716 5722 5729 5735 5740 5747 5754 5761 5768 5776 5784 5791 5798 5805 5812 5818 5825 5830 5836 5841
5654 5651 5649 5648 5647 5647 5647 5649 5651 5654 5658 5662 5668 5673 5679 5686 5693 5700 5706 5712 5718 5724 5730 5737 5744 5751 5758 5766 5774 5781 5789 5796 5803 5810 5817 5823 5829 5834
5643 5640 5638 5636 5634 5634 5635 5636 5638 5641 5645 5649 5656 5661 5666 5673 5680 5687 5694 5701 5708 5714 5721 5727 5734 5741 5748 5756 5764 5772 5779 5787 5795 5802 5809 5816 5822 5827
5633 5630 5627 5625 5623 5622 5622 5623 5625 5628 5631 5636 5641 5647 5654 5661 5668 5676 5684 5691 5698 5704 5711 5718 5724 5731 5739 5746 5754 5762 5770 5779 5786 5794 5802 5809 5815 5820
5624 5620 5617 5614 5612 5610 5609 5610 5612 5614 5617 5622 5628 5634 5641 5648 5656 5664 5672 5680 5687 5694 5701 5709 5715 5722 5729 5737 5745 5753 5762 5770 5778 5786 5794 5801 5808 5814
5614 5610 5607 5604 5600 5598 5597 5597 5598 5601 5604 5608 5614 5620 5627 5635 5643 5651 5659 5668 5676 5684 5692 5699 5706 5713 5720 5728 5736 5745 5753 5762 5770 5778 5786 5794 5801 5808
5605 5601 5597 5594 5590 5588 5586 5585 5585 5587 5591 5595 5601 5607 5614 5622 5630 5639 5647 5656 5665 5673 5681 5689 5697 5705 5712 5719 5727 5736 5744 5753 5762 5770 5779 5786 5794 5800
5596 5592 5588 5584 5581 5578 5576 5574 5574 5575 5578 5583 5589 5595 5602 5609 5617 5626 5635 5643 5652 5661 5670 5679 5688 5695 5703 5711 5718 5727 5736 5744 5753 5762 5771 5779 5786 5793
5588 5583 5579 5575 5572 5569 5566 5565 5564 5565 5567 5572 5576 5582 5589 5597 5605 5613 5623 5631 5641 5651 5659 5669 5678 5686 5694 5702 5710 5718 5727 5736 5745 5754 5763 5771 5778 5786
5580 5575 5571 5567 5564 5561 5558 5556 5555 5555 5557 5561 5565 5570 5577 5585 5593 5602 5611 5620 5630 5640 5649 5659 5667 5676 5684 5692 5700 5709 5718 5727 5736 5745 5754 5763 5771 5778
5572 5568 5564 5561 5558 5554 5552 5549 5548 5547 5549 5551 5555 5561 5567 5574 5582 5590 5599 5609 5619 5629 5638 5648 5657 5666 5675 5684 5692 5700 5709 5719 5728 5737 5746 5754 5763 5771
5566 5561 5558 5555 5552 5549 5546 5544 5542 5541 5542 5544 5547 5552 5558 5564 5571 5580 5589 5598 5608 5618 5628 5638 5647 5657 5666 5676 5684 5692 5701 5710 5720 5729 5738 5747 5755 5763
5560 5556 5552 5549 5546 5544 5541 5539 5537 5537 5536 5538 5540 5545 5550 5556 5562 5570 5579 5589 5598 5608 5618 5628 5639 5649 5658 5667 5675 5684 5693 5702 5711 5720 5730 5738 5747 5755
5555 5551 5547 5544 5542 5539 5536 5535 5533 5532 5532 5533 5535 5539 5543 5549 5555 5562 5571 5579 5589 5599 5609 5620 5629 5638 5647 5656 5666 5675 5684 5693 5702 5712 5721 5730 5738 5746
5550 5546 5543 5540 5537 5535 5532 5531 5530 5529 5529 5530 5531 5534 5538 5543 5549 5556 5564 5572 5581 5591 5600 5610 5619 5628 5639 5649 5658 5667 5676 5685 5694 5702 5712 5722 5729 5738
5545 5541 5538 5535 5533 5531 5529 5527 5527 5526 5526 5527 5528 5531 5534 5539 5544 5550 5558 5566 5574 5582 5592 5602 5611 5621 5630 5640 5649 5658 5667 5676 5685 5694 5704 5713 5721 5729